H1 CPF 2 NER 2024 5 26 9 147 01 glonass132 H2 1401201 9132 39620 2024 5 26 0 0 0 2024 5 29 23 45 0 900 1 1 0 0 0 1 H9 10 0 60456 0.00000 0 10382284.087 1794100.504 -23220826.827 10 0 60456 900.00000 0 10230535.682 4641178.795 -22887364.411 10 0 60456 1800.00000 0 10293582.877 7423673.220 -22108798.820 10 0 60456 2700.00000 0 10557324.072 10072003.920 -20900094.101 10 0 60456 3600.00000 0 10995772.108 12521223.470 -19284608.886 10 0 60456 4500.00000 0 11572218.993 14713498.623 -17293653.114 10 0 60456 5400.00000 0 12240872.406 16600302.685 -14965886.482 10 0 60456 6300.00000 0 12948895.328 18144226.443 -12346569.556 10 0 60456 7200.00000 0 13638762.481 19320331.297 -9486681.689 10 0 60456 8100.00000 0 14250833.369 20116987.505 -6441922.971 10 0 60456 9000.00000 0 14726032.002 20536162.246 -3271620.106 10 0 60456 9900.00000 0 15008518.448 20593145.676 -37558.506 10 0 60456 10800.00000 0 15048237.461 20315727.308 3197235.378 10 0 60456 11700.00000 0 14803234.623 19742858.644 6369736.292 10 0 60456 12600.00000 0 14241640.394 18922860.101 9418161.123 10 0 60456 13500.00000 0 13343236.896 17911249.740 12283182.951 10 0 60456 14400.00000 0 12100540.289 16768287.348 14909093.329 10 0 60456 15300.00000 0 10519352.569 15556339.267 17244889.312 10 0 60456 16200.00000 0 8618759.410 14337176.543 19245263.721 10 0 60456 17100.00000 0 6430574.278 13169321.159 20871479.554 10 0 60456 18000.00000 0 3998252.493 12105552.485 22092112.137 10 0 60456 18900.00000 0 1375321.074 11190678.511 22883645.647 10 0 60456 19800.00000 0 -1376609.795 10459664.682 23230913.754 10 0 60456 20700.00000 0 -4190170.694 9936197.560 23127377.272 10 0 60456 21600.00000 0 -6994795.873 9631741.908 22575234.908 10 0 60456 22500.00000 0 -9719419.245 9545128.918 21585366.270 10 0 60456 23400.00000 0 -12295192.500 9662691.112 20177109.299 10 0 60456 24300.00000 0 -14658113.891 9958936.653 18377877.198 10 0 60456 25200.00000 0 -16751460.183 10397733.582 16222622.637 10 0 60456 26100.00000 0 -18527922.504 10933953.466 13753159.675 10 0 60456 27000.00000 0 -19951359.175 11515505.062 11017356.266 10 0 60456 27900.00000 0 -20998094.305 12085672.550 8068212.452 10 0 60456 28800.00000 0 -21657709.585 12585660.376 4962841.458 10 0 60456 29700.00000 0 -21933297.550 12957238.115 1761372.645 10 0 60456 30600.00000 0 -21841166.625 13145374.649 -1474203.257 10 0 60456 31500.00000 0 -21410010.909 13100751.183 -4681225.004 10 0 60456 32400.00000 0 -20679579.636 12782047.571 -7797565.446 10 0 60456 33300.00000 0 -19698901.977 12157905.613 -10762827.212 10 0 60456 34200.00000 0 -18524141.245 11208486.210 -13519506.832 10 0 60456 35100.00000 0 -17216167.954 9926553.952 -16014105.236 10 0 60456 36000.00000 0 -15837952.901 8318042.124 -18198163.473 10 0 60456 36900.00000 0 -14451888.992 6402072.587 -20029203.824 10 0 60456 37800.00000 0 -13117153.638 4210427.481 -21471558.166 10 0 60456 38700.00000 0 -11887221.949 1786492.391 -22497067.458 10 0 60456 39600.00000 0 -10807634.938 -816287.351 -23085638.488 10 0 60456 40500.00000 0 -9914116.476 -3536375.247 -23225646.550 10 0 60456 41400.00000 0 -9231118.415 -6306457.218 -22914175.481 10 0 60456 42300.00000 0 -8770855.589 -9056005.558 -22157089.417 10 0 60456 43200.00000 0 -8532872.035 -11713987.757 -20968933.717 10 0 60456 44100.00000 0 -8504157.510 -14211608.153 -19372665.759 10 0 60456 45000.00000 0 -8659810.208 -16484968.289 -17399219.629 10 0 60456 45900.00000 0 -8964218.323 -18477534.820 -15086912.102 10 0 60456 46800.00000 0 -9372710.905 -20142311.325 -12480700.651 10 0 60456 47700.00000 0 -9833608.154 -21443622.422 -9631307.504 10 0 60456 48600.00000 0 -10290583.889 -22358434.783 -6594226.820 10 0 60456 49500.00000 0 -10685239.175 -22877159.107 -3428634.745 10 0 60456 50400.00000 0 -10959776.752 -23003899.204 -196224.545 10 0 60456 51300.00000 0 -11059661.257 -22756138.029 3040009.241 10 0 60456 52200.00000 0 -10936150.810 -22163874.695 6217012.438 10 0 60456 53100.00000 0 -10548590.977 -21268250.078 9272912.851 10 0 60456 54000.00000 0 -9866372.528 -20119720.587 12148236.188 10 0 60456 54900.00000 0 -8870469.006 -18775858.841 14787071.393 10 0 60456 55800.00000 0 -7554488.389 -17298875.737 17138161.811 10 0 60456 56700.00000 0 -5925194.106 -15752969.797 19155900.587 10 0 60456 57600.00000 0 -4002473.416 -14201616.486 20801211.089 10 0 60456 58500.00000 0 -1818754.677 -12704912.043 22042295.830 10 0 60456 59400.00000 0 582101.792 -11317083.340 22855240.359 10 0 60456 60300.00000 0 3146392.597 -10084267.547 23224461.744 10 0 60456 61200.00000 0 5812573.473 -9042653.478 23142994.358 10 0 60456 62100.00000 0 8513591.481 -8217060.747 22612608.899 10 0 60456 63000.00000 0 11179450.683 -7620014.270 21643763.660 10 0 60456 63900.00000 0 13739905.352 -7251350.816 20255390.047 10 0 60456 64800.00000 0 16127169.996 -7098372.076 18474517.268 10 0 60456 65700.00000 0 18278534.979 -7136536.126 16335743.838 10 0 60456 66600.00000 0 20138780.588 -7330656.928 13880566.199 10 0 60456 67500.00000 0 21662290.789 -7636560.618 11156577.216 10 0 60456 68400.00000 0 22814780.292 -8003128.523 8216549.544 10 0 60456 69300.00000 0 23574564.375 -8374640.938 5117420.994 10 0 60456 70200.00000 0 23933319.690 -8693323.271 1919200.774 10 0 60456 71100.00000 0 23896305.173 -8901987.746 -1316183.020 10 0 60456 72000.00000 0 23482034.345 -8946659.833 -4526073.056 10 0 60456 72900.00000 0 22721412.895 -8779079.052 -7648287.291 10 0 60456 73800.00000 0 21656377.516 -8358968.892 -10622315.653 10 0 60456 74700.00000 0 20338092.545 -7655979.960 -13390486.274 10 0 60456 75600.00000 0 18824779.349 -6651223.885 -15899079.123 10 0 60456 76500.00000 0 17179268.565 -5338332.278 -18099365.887 10 0 60456 77400.00000 0 15466376.954 -3723994.640 -19948556.134 10 0 60456 78300.00000 0 13750217.957 -1827950.595 -21410631.579 10 0 60456 79200.00000 0 12091557.909 317565.609 -22457052.190 10 0 60456 80100.00000 0 10545328.217 2668907.620 -23067320.149 10 0 60456 81000.00000 0 9158397.440 5172583.841 -23229390.249 10 0 60456 81900.00000 0 7967696.647 7767245.651 -22939918.002 10 0 60456 82800.00000 0 6998776.900 10386016.100 -22204339.669 10 0 60456 83700.00000 0 6264859.819 12959063.584 -21036781.532 10 0 60456 84600.00000 0 5766421.629 15416314.300 -19459798.923 10 0 60456 85500.00000 0 5491328.759 17690190.758 -17503948.886 10 0 60457 0.00000 0 5415519.668 19718261.833 -15207203.895 10 0 60457 900.00000 0 5504204.361 21445694.134 -12614215.932 10 0 60457 1800.00000 0 5713530.834 22827398.658 -9775447.948 10 0 60457 2700.00000 0 5992647.338 23829785.457 -6746185.487 10 0 60457 3600.00000 0 6286072.337 24432049.121 -3585451.169 10 0 60457 4500.00000 0 6536270.344 24626931.580 -354842.933 10 0 60457 5400.00000 0 6686322.835 24420929.819 2882679.887 10 0 60457 6300.00000 0 6682579.217 23833940.067 6064037.517 10 0 60457 7200.00000 0 6477173.667 22898354.255 9127271.924 10 0 60457 8100.00000 0 6030299.572 21657648.048 12012764.530 10 0 60457 9000.00000 0 5312143.907 20164521.474 14664404.541 10 0 60457 9900.00000 0 4304398.800 18478672.061 17030684.192 10 0 60457 10800.00000 0 3001285.849 16664295.733 19065699.250 10 0 60457 11700.00000 0 1410049.808 14787421.748 20730035.426 10 0 60457 12600.00000 0 -449099.052 12913194.369 21991524.033 10 0 60457 13500.00000 0 -2543591.234 11103215.471 22825853.216 10 0 60457 14400.00000 0 -4829627.302 9413058.949 23217024.231 10 0 60457 15300.00000 0 -7253782.727 7890059.915 23157645.313 10 0 60457 16200.00000 0 -9755021.302 6571469.555 22649058.930 10 0 60457 17100.00000 0 -12267033.528 5483050.763 21701301.285 10 0 60457 18000.00000 0 -14720803.163 4638171.067 20332895.894 10 0 60457 18900.00000 0 -17047296.048 4037428.492 18570486.066 10 0 60457 19800.00000 0 -19180160.579 3668823.914 16448313.738 10 0 60457 20700.00000 0 -21058328.768 3508470.860 14007554.890 10 0 60457 21600.00000 0 -22628411.118 3521811.565 11295524.125 10 0 60457 22500.00000 0 -23846786.991 3665287.315 8364763.341 10 0 60457 23400.00000 0 -24681304.599 3888392.329 5272031.474 10 0 60457 24300.00000 0 -25112520.801 4136024.722 2077214.152 10 0 60457 25200.00000 0 -25134429.687 4351035.692 -1157826.474 10 0 60457 26100.00000 0 -24754649.967 4476869.885 -4370440.148 10 0 60457 27000.00000 0 -23994063.431 4460185.981 -7498392.891 10 0 60457 27900.00000 0 -22885919.357 4253347.262 -10481064.698 10 0 60457 28800.00000 0 -21474441.853 3816677.127 -13260617.812 10 0 60457 29700.00000 0 -19812997.641 3120384.145 -15783113.495 10 0 60457 30600.00000 0 -17961900.040 2146074.751 -17999555.993 10 0 60457 31500.00000 0 -15985940.043 887788.654 -19866843.705 10 0 60457 32400.00000 0 -13951746.742 -647488.286 -21348609.288 10 0 60457 33300.00000 0 -11925086.579 -2439857.404 -22415932.330 10 0 60457 34200.00000 0 -9968213.592 -4457087.802 -23047910.520 10 0 60457 35100.00000 0 -8137380.905 -6655722.419 -23232077.758 10 0 60457 36000.00000 0 -6480617.230 -8982665.867 -22964660.353 10 0 60457 36900.00000 0 -5035861.378 -11377189.951 -22250665.370 10 0 60457 37800.00000 0 -3829533.040 -13773275.015 -21103798.289 10 0 60457 38700.00000 0 -2875600.041 -16102190.762 -19546210.333 10 0 60457 39600.00000 0 -2175181.583 -18295209.459 -17608079.154 10 0 60457 40500.00000 0 -1716704.421 -20286338.357 -15327029.935 10 0 60457 41400.00000 0 -1476605.498 -22014956.653 -12747407.316 10 0 60457 42300.00000 0 -1420551.226 -23428245.744 -9919411.855 10 0 60457 43200.00000 0 -1505121.385 -24483309.858 -6898117.769 10 0 60457 44100.00000 0 -1679885.453 -25148896.933 -3742391.522 10 0 60457 45000.00000 0 -1889782.152 -25406646.450 -513733.210 10 0 60457 45900.00000 0 -2077699.735 -25251811.116 2724935.427 10 0 60457 46800.00000 0 -2187145.778 -24693421.793 5910511.274 10 0 60457 47700.00000 0 -2164891.421 -23753889.089 8980952.587 10 0 60457 48600.00000 0 -1963476.177 -22468059.131 11876498.517 10 0 60457 49500.00000 0 -1543465.722 -20881764.503 14540840.389 10 0 60457 50400.00000 0 -875365.927 -19049932.708 16922221.024 10 0 60457 51300.00000 0 58888.474 -17034333.142 18974440.297 10 0 60457 52200.00000 0 1264933.741 -14901058.450 20657747.490 10 0 60457 53100.00000 0 2735507.645 -12717846.840 21939603.636 10 0 60457 54000.00000 0 4450530.120 -10551357.905 22795300.074 10 0 60457 54900.00000 0 6377730.327 -8464515.716 23208422.496 10 0 60457 55800.00000 0 8473793.539 -6514029.426 23171152.909 10 0 60457 56700.00000 0 10685979.706 -4748193.482 22684405.145 10 0 60457 57600.00000 0 12954146.201 -3205057.373 21757792.605 10 0 60457 58500.00000 0 15213090.714 -1911039.078 20409429.958 10 0 60457 59400.00000 0 17395117.314 -880037.712 18665573.404 10 0 60457 60300.00000 0 19432719.715 -113080.058 16560106.888 10 0 60457 61200.00000 0 21261271.080 401486.376 14133884.299 10 0 60457 62100.00000 0 22821609.519 687263.691 11433940.149 10 0 60457 63000.00000 0 24062412.781 778569.331 8512583.534 10 0 60457 63900.00000 0 24942264.185 718749.944 5426392.275 10 0 60457 64800.00000 0 25431324.538 558114.757 2235125.991 10 0 60457 65700.00000 0 25512540.890 351575.528 -999421.683 10 0 60457 66600.00000 0 25182341.957 156092.328 -4214610.205 10 0 60457 67500.00000 0 24450791.159 28032.509 -7348156.308 10 0 60457 68400.00000 0 23341190.561 20553.902 -10339332.589 10 0 60457 69300.00000 0 21889151.636 181122.442 -13130137.800 10 0 60457 70200.00000 0 20141170.832 549268.956 -15666416.681 10 0 60457 71100.00000 0 18152768.395 1154680.130 -17898907.996 10 0 60457 72000.00000 0 15986267.068 2015704.930 -19784200.724 10 0 60457 72900.00000 0 13708302.212 3138340.667 -21285580.005 10 0 60457 73800.00000 0 11387166.187 4515743.125 -22373746.401 10 0 60457 74700.00000 0 9090096.834 6128283.444 -23027394.262 10 0 60457 75600.00000 0 6880622.430 7944151.775 -23233637.521 10 0 60457 76500.00000 0 4816073.374 9920484.874 -22988273.939 10 0 60457 77400.00000 0 2945364.234 12004972.789 -22295881.714 10 0 60457 78300.00000 0 1307138.760 14137879.481 -21169745.486 10 0 60457 79200.00000 0 -71644.429 16254394.505 -19631611.913 10 0 60457 80100.00000 0 -1176626.020 18287218.389 -17711278.373 10 0 60457 81000.00000 0 -2006421.511 20169273.964 -15446021.656 10 0 60457 81900.00000 0 -2572442.190 21836429.908 -12879876.906 10 0 60457 82800.00000 0 -2898169.302 23230121.612 -10062780.332 10 0 60457 83700.00000 0 -3017912.521 24299758.300 -7049592.331 10 0 60457 84600.00000 0 -2975106.055 25004814.048 -3899020.409 10 0 60457 85500.00000 0 -2820215.736 25316513.435 -672463.787 10 0 60458 0.00000 0 -2608347.335 25219039.942 2567196.283 10 0 60458 900.00000 0 -2396659.190 24710215.382 5756837.182 10 0 60458 1800.00000 0 -2241691.065 23801621.759 8834336.407 10 0 60458 2700.00000 0 -2196723.920 22518160.593 11739793.982 10 0 60458 3600.00000 0 -2309284.444 20897069.012 14416706.356 10 0 60458 4500.00000 0 -2618901.156 18986435.133 16813069.730 10 0 60458 5400.00000 0 -3155207.903 16843276.347 18882390.646 10 0 60458 6300.00000 0 -3936475.272 14531262.339 20584584.233 10 0 60458 7200.00000 0 -4968631.868 12118179.259 21886743.218 10 0 60458 8100.00000 0 -6244816.391 9673241.730 22763763.749 10 0 60458 9000.00000 0 -7745478.874 7264365.003 23198817.155 10 0 60458 9900.00000 0 -9439026.292 4955510.610 23183659.950 10 0 60458 10800.00000 0 -11282985.123 2804215.015 22718777.544 10 0 60458 11700.00000 0 -13225631.986 859402.550 21813360.180 10 0 60458 12600.00000 0 -15208024.291 -840428.316 20485112.711 10 0 60458 13500.00000 0 -17166346.482 -2268572.160 18759902.668 10 0 60458 14400.00000 0 -19034474.614 -3410982.696 16671253.861 10 0 60458 15300.00000 0 -20746653.156 -4266603.948 14259695.430 10 0 60458 16200.00000 0 -22240173.348 -4847154.808 11571978.713 10 0 60458 17100.00000 0 -23457942.416 -5176377.740 8660176.600 10 0 60458 18000.00000 0 -24350837.363 -5288784.412 5580682.205 10 0 60458 18900.00000 0 -24879745.860 -5227951.808 2393125.461 10 0 60458 19800.00000 0 -25017209.528 -5044440.810 -840772.172 10 0 60458 20700.00000 0 -24748601.188 -4793424.960 -4058383.425 10 0 60458 21600.00000 0 -24072786.767 -4532129.073 -7197379.146 10 0 60458 22500.00000 0 -23002243.784 -4317185.358 -10196927.744 10 0 60458 23400.00000 0 -21562630.691 -4202018.250 -12998867.451 10 0 60458 24300.00000 0 -19791824.069 -4234368.056 -15548829.165 10 0 60458 25200.00000 0 -17738462.647 -4454057.964 -17797288.505 10 0 60458 26100.00000 0 -15460057.582 -4891098.945 -19700526.940 10 0 60458 27000.00000 0 -13020746.416 -5564213.291 -21221483.501 10 0 60458 27900.00000 0 -10488782.989 -6479840.204 -22330480.569 10 0 60458 28800.00000 0 -7933866.699 -7631667.000 -23005809.403 10 0 60458 29700.00000 0 -5424421.323 -9000707.659 -23234163.613 10 0 60458 30600.00000 0 -3024935.966 -10555927.674 -23010911.478 10 0 60458 31500.00000 0 -793478.483 -12255391.256 -22340200.883 10 0 60458 32400.00000 0 1220515.190 -14047884.924 -21234893.719 10 0 60458 33300.00000 0 2978083.548 -15874951.205 -19716329.797 10 0 60458 34200.00000 0 4452136.669 -17673248.480 -17813923.631 10 0 60458 35100.00000 0 5628349.378 -19377138.724 -15564600.793 10 0 60458 36000.00000 0 6505512.834 -20921394.665 -13012083.934 10 0 60458 36900.00000 0 7095329.857 -22243912.139 -10206041.829 10 0 60458 37800.00000 0 7421663.018 -23288312.687 -7201117.936 10 0 60458 38700.00000 0 7519267.959 -24006325.590 -4055857.722 10 0 60458 39600.00000 0 7432066.627 -24359847.623 -831556.551 10 0 60458 40500.00000 0 7211034.966 -24322592.421 2408948.219 10 0 60458 41400.00000 0 6911796.347 -23881258.845 5602515.936 10 0 60458 42300.00000 0 6592024.632 -23036168.453 8686946.329 10 0 60458 43200.00000 0 6308768.866 -21801345.023 11602202.454 10 0 60458 44100.00000 0 6115814.712 -20204033.045 14291587.761 10 0 60458 45000.00000 0 6061195.818 -18283676.166 16702853.412 10 0 60458 45900.00000 0 6184961.376 -16090399.435 18789213.863 10 0 60458 46800.00000 0 6517294.771 -13683060.072 20510251.003 10 0 60458 47700.00000 0 7077062.767 -11126949.356 21832689.794 10 0 60458 48600.00000 0 7870856.018 -8491242.391 22731031.362 10 0 60458 49500.00000 0 8892560.691 -5846302.405 23188032.487 10 0 60458 50400.00000 0 10123478.446 -3260951.732 23195023.669 10 0 60458 51300.00000 0 11532989.025 -799822.213 22752061.049 10 0 60458 52200.00000 0 13079727.150 1479106.125 21867910.612 10 0 60458 53100.00000 0 14713224.161 3526677.567 20559866.063 10 0 60458 54000.00000 0 16375945.717 5304356.220 18853404.740 10 0 60458 54900.00000 0 18005640.749 6785572.173 16781688.634 10 0 60458 55800.00000 0 19537904.044 7956564.600 14384920.306 10 0 60458 56700.00000 0 20908846.179 8816688.892 11709565.958 10 0 60458 57600.00000 0 22057760.112 9378176.965 8807460.191 10 0 60458 58500.00000 0 22929673.791 9665362.325 5734809.197 10 0 60458 59400.00000 0 23477682.797 9713403.558 2551110.917 10 0 60458 60300.00000 0 23664965.977 9566560.506 -681987.733 10 0 60458 61200.00000 0 23466399.937 9276095.903 -3901875.151 10 0 60458 62100.00000 0 22869704.760 8897890.738 -7046178.631 10 0 60458 63000.00000 0 21876072.523 8489873.527 -10053964.625 10 0 60458 63900.00000 0 20500251.497 8109371.476 -12866912.898 10 0 60458 64800.00000 0 18770081.386 7810494.863 -15430442.357 10 0 60458 65700.00000 0 16725497.586 7641664.713 -17694767.121 10 0 60458 66600.00000 0 14417044.482 7643388.070 -19615862.594 10 0 60458 67500.00000 0 11903958.117 7846375.004 -21156322.995 10 0 60458 68400.00000 0 9251896.472 8270077.468 -22286093.683 10 0 60458 69300.00000 0 6530410.372 8921712.732 -22983063.860 10 0 60458 70200.00000 0 3810258.957 9795814.045 -23233507.707 10 0 60458 71100.00000 0 1160680.337 10874329.284 -23032364.726 10 0 60458 72000.00000 0 -1353269.675 12127265.471 -22383352.926 10 0 60458 72900.00000 0 -3673200.395 13513854.029 -21298911.567 10 0 60458 73800.00000 0 -5749587.352 14984189.698 -19799973.341 10 0 60458 74700.00000 0 -7543599.664 16481275.617 -17915569.204 10 0 60458 75600.00000 0 -9028477.161 17943389.618 -15682272.392 10 0 60458 76500.00000 0 -10190399.435 19306672.549 -13143491.539 10 0 60458 77400.00000 0 -11028810.250 20507829.468 -10348626.097 10 0 60458 78300.00000 0 -11556183.931 21486829.168 -7352100.377 10 0 60458 79200.00000 0 -11797244.103 22189487.050 -4212295.350 10 0 60458 80100.00000 0 -11787668.692 22569820.949 -990399.866 10 0 60458 81000.00000 0 -11572337.276 22592078.994 2250795.136 10 0 60458 81900.00000 0 -11203196.611 22232352.573 5448134.444 10 0 60458 82800.00000 0 -10736836.588 21479705.249 8539342.675 10 0 60458 83700.00000 0 -10231881.288 20336769.399 11464248.853 10 0 60458 84600.00000 0 -9746307.446 18819785.248 14165966.321 10 0 60458 85500.00000 0 -9334805.429 16958080.920 16592004.006 10 0 60459 0.00000 0 -9046295.555 14793016.194 18695286.769 10 0 60459 900.00000 0 -8921705.205 12376433.847 20435066.116 10 0 60459 1800.00000 0 -8992101.076 9768687.253 21777701.294 10 0 60459 2700.00000 0 -9277254.402 7036323.491 22697300.360 10 0 60459 3600.00000 0 -9784699.277 4249521.815 23176207.155 10 0 60459 4500.00000 0 -10509322.490 1479393.042 23205327.353 10 0 60459 5400.00000 0 -11433501.127 -1204748.205 22784288.545 10 0 60459 6300.00000 0 -12527781.217 -3738026.120 21921432.634 10 0 60459 7200.00000 0 -13752068.226 -6062452.939 20633641.784 10 0 60459 8100.00000 0 -15057279.145 -8129084.987 18946002.153 10 0 60459 9000.00000 0 -16387386.885 -9899798.152 16891312.342 10 0 60459 9900.00000 0 -17681771.674 -11348611.167 14509446.219 10 0 60459 10800.00000 0 -18877781.506 -12462503.886 11846582.247 10 0 60459 11700.00000 0 -19913395.181 -13241698.444 8954313.744 10 0 60459 12600.00000 0 -20729877.126 -13699393.287 5888656.690 10 0 60459 13500.00000 0 -21274313.513 -13860962.555 2708973.533 10 0 60459 14400.00000 0 -21501923.952 -13762655.278 -523166.961 10 0 60459 15300.00000 0 -21378052.138 -13449849.495 -3745172.492 10 0 60459 16200.00000 0 -20879751.977 -12974934.789 -6894630.421 10 0 60459 17100.00000 0 -19996902.304 -12394912.150 -9910508.761 10 0 60459 18000.00000 0 -18732802.675 -11768811.854 -12734332.189 10 0 60459 18900.00000 0 -17104224.116 -11155037.699 -15311310.791 10 0 60459 19800.00000 0 -15140911.181 -10608749.046 -17591400.056 10 0 60459 20700.00000 0 -12884554.392 -10179390.765 -19530271.818 10 0 60459 21600.00000 0 -10387274.037 -9908475.113 -21090177.490 10 0 60459 22500.00000 0 -7709676.596 -9827709.269 -22240686.862 10 0 60459 23400.00000 0 -4918562.898 -9957548.094 -22959287.913 10 0 60459 24300.00000 0 -2084381.723 -10306234.032 -23231835.588 10 0 60459 25200.00000 0 721466.657 -10869365.965 -23052840.196 10 0 60459 26100.00000 0 3429365.850 -11630016.743 -22425588.877 10 0 60459 27000.00000 0 5974144.528 -12559396.162 -21362096.759 10 0 60459 27900.00000 0 8297552.955 -13618033.137 -19882887.473 10 0 60459 28800.00000 0 10350451.608 -14757428.733 -18016606.087 10 0 60459 29700.00000 0 12094620.357 -15922111.483 -15799470.833 10 0 60459 30600.00000 0 13504112.268 -17052008.941 -13274573.361 10 0 60459 31500.00000 0 14566095.057 -18085035.438 -10491040.579 10 0 60459 32400.00000 0 15281144.839 -18959786.290 -7503074.234 10 0 60459 33300.00000 0 15662980.120 -19618223.647 -4368887.252 10 0 60459 34200.00000 0 15737647.857 -20008239.090 -1149558.382 10 0 60459 35100.00000 0 15542197.100 -20085983.130 2092171.368 10 0 60459 36000.00000 0 15122897.698 -19817861.594 5293135.589 10 0 60459 36900.00000 0 14533081.218 -19182113.170 8390986.867 10 0 60459 37800.00000 0 13830697.360 -18169900.511 11325422.929 10 0 60459 38700.00000 0 13075691.173 -16785868.268 14039369.341 10 0 60459 39600.00000 0 12327313.735 -15048144.381 16480094.663 10 0 60459 40500.00000 0 11641481.292 -12987784.842 18600235.925 10 0 60459 41400.00000 0 11068295.236 -10647685.718 20358714.429 10 0 60459 42300.00000 0 10649827.826 -8081008.698 21721524.598 10 0 60459 43200.00000 0 10418266.658 -5349186.578 22662381.473 10 0 60459 44100.00000 0 10394495.228 -2519592.315 23163215.591 10 0 60459 45000.00000 0 10587168.133 337031.164 23214507.054 10 0 60459 45900.00000 0 10992318.432 3149273.849 22815453.823 10 0 60459 46800.00000 0 11593512.330 5847782.788 21973972.339 10 0 60459 47700.00000 0 12362543.480 8367895.587 20706531.595 10 0 60459 48600.00000 0 13260636.894 10652075.652 19037824.731 10 0 60459 49500.00000 0 14240111.455 12652050.005 17000284.949 10 0 60459 50400.00000 0 15246431.113 14330562.919 14633455.273 10 0 60459 51300.00000 0 16220558.973 15662674.576 11983224.160 10 0 60459 52200.00000 0 17101515.976 16636552.653 9100941.271 10 0 60459 53100.00000 0 17829037.434 17253725.569 6042429.922 10 0 60459 54000.00000 0 18346216.597 17528788.231 2866914.579 10 0 60459 54900.00000 0 18602024.855 17488573.664 -364116.652 10 0 60459 55800.00000 0 18553603.112 17170825.839 -3588093.220 10 0 60459 56700.00000 0 18168228.233 16622429.683 -6742564.884 10 0 60459 57600.00000 0 17424871.694 15897272.537 -9766403.374 10 0 60459 58500.00000 0 16315284.340 15053826.629 -12600980.209 10 0 60459 59400.00000 0 14844560.652 14152553.796 -15191298.337 10 0 60459 60300.00000 0 13031157.351 13253241.115 -17487056.057 10 0 60459 61200.00000 0 10906363.749 12412379.099 -19443622.850 10 0 60459 62100.00000 0 8513243.895 11680692.480 -21022908.367 10 0 60459 63000.00000 0 5905092.499 11100927.403 -22194107.729 10 0 60459 63900.00000 0 3143466.840 10705988.352 -22934308.472 10 0 60459 64800.00000 0 295874.617 10517503.754 -23228946.959 10 0 60459 65700.00000 0 -2566787.827 10544881.451 -23072104.772 10 0 60459 66600.00000 0 -5372941.679 10784894.928 -22466638.425 10 0 60459 67500.00000 0 -8053064.656 11221819.010 -21424138.846 10 0 60459 68400.00000 0 -10542349.399 11828110.647 -19964720.170 10 0 60459 69300.00000 0 -12783170.641 12565607.376 -18116640.757 10 0 60459 70200.00000 0 -14727258.080 13387193.882 -15915762.630 10 0 60459 71100.00000 0 -16337483.854 14238866.993 -13404858.908 10 0 60459 72000.00000 0 -17589189.352 15062111.992 -10632782.111 10 0 60459 72900.00000 0 -18470995.416 15796489.435 -7653509.359 10 0 60459 73800.00000 0 -18985061.881 16382322.193 -4525083.306 10 0 60459 74700.00000 0 -19146785.774 16763367.703 -1308470.249 10 0 60459 75600.00000 0 -18983951.695 16889360.767 1933641.177 10 0 60459 76500.00000 0 -18535371.393 16718317.623 5138075.875 10 0 60459 77400.00000 0 -17849071.594 16218502.246 8242416.965 10 0 60459 78300.00000 0 -16980108.480 15369970.433 11186233.492 10 0 60459 79200.00000 0 -15988103.101 14165625.512 13912265.857 10 0 60459 80100.00000 0 -14934603.675 12611740.648 16367544.856 10 0 60459 81000.00000 0 -13880387.639 10727925.647 18504422.033 10 0 60459 81900.00000 0 -12882818.331 8546539.848 20281491.266 10 0 60459 82800.00000 0 -11993368.184 6111576.203 21664384.146 10 0 60459 83700.00000 0 -11255412.576 3477063.689 22626424.655 10 0 60459 84600.00000 0 -10702386.383 705055.159 23149131.677 10 0 60459 85500.00000 0 -10356379.522 -2136715.337 23222561.037 99